Location: Bun
(42.9667°N, 0.1500°W)
Time: 04:30:05
(UTC+00:00)

CZ-4B R/B - Pass Details

Date: 03 February 2023
Orbit: 809 x 881 km, 99.0° (Epoch: 26 March)

Event Time Altitude Azimuth Distance (km) Brightness Sun altitude
Rises 17:48:44 0° 128° (SE) 3,336 6.0 -6.6°
Reaches altitude 10° 17:51:26 10° 115° (ESE) 2,417 5.1 -7.0°
Maximum altitude 17:55:41 25° 62° (ENE) 1,630 4.1 -7.8°
Drops below altitude 10° 18:00:00 10° 10° (N) 2,464 5.4 -8.6°
Sets 18:02:46 0° 357° (N) 3,416 6.2 -9.0°
